Weather History for KHUL - March, 2013

Change the Weather History Date:

Sunday, March 17, 2013

  Actual Average Record
Temperature  
Mean Temperature 13 °F 26 °F  
Max Temperature 23 °F 36 °F 55 °F (1936)
Min Temperature 2 °F 15 °F -22 °F (1967)
Degree Days  
Heating Degree Days 52 39  
Month to date heating degree days 570 719  
Since 1 July heating degree days 6675 7292  
Cooling Degree Days 0 0  
Month to date cooling degree days 0 0  
Year to date cooling degree days 0 0  
Moisture  
Dew Point 3 °F    
Average Humidity 62    
Maximum Humidity 87    
Minimum Humidity 36    
Precipitation  
Precipitation T in 0.09 in 2.19 in (2007)
Month to date precipitation 0.98 1.40  
Year to date precipitation 3.38 6.26  
Sea Level Pressure  
Sea Level Pressure 29.92 in    
Wind  
Wind Speed 9 mph (West)    
Max Wind Speed 23 mph    
Max Gust Speed 31 mph    
Visibility 7 miles    
Events Snow    
T = Trace of Precipitation, MM = Missing Value Source: NWS Daily Summary

Daily Weather History Graph

Daily Weather History Graph

Search for Another Location

Airport or City:

Trip Planner

Search our weather history database for the weather conditions in past years. The results will help you decide how hot, cold, wet, or windy it might be!

Date:

Astronomy

Mar. 17, 2013 Rise Set
Actual Time 6:39 AM EDT 6:39 PM EDT
Civil Twilight 6:09 AM EDT 7:09 PM EDT
Nautical Twilight 5:34 AM EDT 7:44 PM EDT
Astronomical Twilight 4:59 AM EDT 8:20 PM EDT
Moon 9:31 AM EDT (3/17) 12:02 AM EDT (3/17)
Length of Visible Light 13h 00m
Length of Day
12h 00m
Waxing Crescent, 31% of the Moon is Illuminated
Mar 17
Waxing Crescent
Mar 19
First Quarter
Mar 27
Full
Apr 3
Last Quarter
Apr 10
New

Hourly Weather History & Observations

Time (EDT) Temp. Windchill Dew Point Humidity Pressure Visibility Wind Dir Wind Speed Gust Speed Precip Events Conditions
12:53 AM 10.9 °F - 3.9 °F 73% 29.85 in 10.0 mi Calm Calm - N/A   Clear
1:53 AM 10.0 °F - 3.0 °F 73% 29.86 in 10.0 mi Calm Calm - N/A   Clear
2:53 AM 7.0 °F - 1.0 °F 77% 29.85 in 10.0 mi Calm Calm - N/A   Clear
3:53 AM 5.0 °F - 1.0 °F 84% 29.86 in 10.0 mi Calm Calm - N/A   Clear
4:53 AM 3.0 °F - -2.0 °F 80% 29.86 in 10.0 mi Calm Calm - N/A   Clear
5:53 AM 1.9 °F - -2.9 °F 80% 29.87 in 10.0 mi Calm Calm - N/A   Clear
6:53 AM 1.9 °F - -2.9 °F 80% 29.88 in 10.0 mi Calm Calm - N/A   Clear
7:53 AM 12.0 °F - 3.9 °F 70% 29.87 in 10.0 mi Calm Calm - N/A   Clear
8:53 AM 17.1 °F 11.7 °F 5.0 °F 59% 29.86 in 10.0 mi West 3.5 mph - N/A   Mostly Cloudy
9:53 AM 19.0 °F 9.0 °F 6.1 °F 57% 29.86 in 9.0 mi SW 8.1 mph - N/A   Overcast
10:11 AM 19.4 °F 9.5 °F 8.6 °F 63% 29.82 in 2.5 mi West 8.1 mph - 0.00 in Snow Light Snow
10:19 AM 19.4 °F 7.9 °F 8.6 °F 63% 29.83 in 5.0 mi WSW 10.4 mph 23.0 mph 0.00 in   Haze
10:28 AM 19.4 °F 6.0 °F 10.4 °F 68% 29.83 in 3.0 mi WSW 13.8 mph 24.2 mph 0.00 in Snow Light Snow
10:35 AM 19.4 °F 6.6 °F 10.4 °F 68% 29.83 in 2.0 mi West 12.7 mph - 0.00 in Snow Light Snow
10:53 AM 19.0 °F 5.0 °F 10.9 °F 71% 29.86 in 1.5 mi West 15.0 mph 23.0 mph 0.00 in Snow Light Snow
11:00 AM 19.4 °F 5.5 °F 10.4 °F 68% 29.83 in 1.2 mi West 15.0 mph 23.0 mph 0.00 in Snow Light Snow
11:13 AM 19.4 °F 6.0 °F 12.2 °F 74% 29.83 in 0.8 mi West 13.8 mph 18.4 mph 0.00 in Snow Light Snow
11:23 AM 19.4 °F 4.5 °F 12.2 °F 74% 29.84 in 0.5 mi West 17.3 mph 23.0 mph 0.00 in Snow Snow
11:29 AM 17.6 °F 5.0 °F 10.4 °F 73% 29.84 in 1.5 mi West 11.5 mph 23.0 mph N/A Snow Light Snow
11:35 AM 19.4 °F 6.6 °F 12.2 °F 74% 29.84 in 3.0 mi West 12.7 mph 19.6 mph 0.00 in Snow Light Snow
11:53 AM 19.9 °F 6.2 °F 10.9 °F 68% 29.88 in 3.0 mi West 15.0 mph 21.9 mph 0.00 in Snow Light Snow
12:00 PM 19.4 °F 7.2 °F 8.6 °F 63% 29.85 in 8.0 mi West 11.5 mph 23.0 mph 0.00 in   Overcast
12:53 PM 23.0 °F 8.7 °F 7.0 °F 50% 29.88 in 10.0 mi West 18.4 mph 29.9 mph 0.00 in   Mostly Cloudy
1:53 PM 19.0 °F 5.6 °F 5.0 °F 54% 29.90 in 3.0 mi WNW 13.8 mph 26.5 mph 0.00 in Snow Light Snow
2:53 PM 19.0 °F 4.0 °F -0.9 °F 42% 29.91 in 10.0 mi WNW 17.3 mph 29.9 mph 0.00 in   Mostly Cloudy
3:53 PM 21.0 °F 6.2 °F -2.9 °F 35% 29.94 in 10.0 mi West 18.4 mph 27.6 mph 0.00 in   Mostly Cloudy
4:53 PM 18.0 °F 2.2 °F -2.9 °F 40% 29.98 in 10.0 mi NW 18.4 mph 28.8 mph N/A   Overcast
5:53 PM 17.1 °F 3.6 °F -2.9 °F 41% 30.02 in 10.0 mi NW 12.7 mph 21.9 mph N/A   Overcast
6:53 PM 15.1 °F 3.3 °F -5.1 °F 41% 30.05 in 10.0 mi WNW 9.2 mph 21.9 mph N/A   Partly Cloudy
7:53 PM 14.0 °F 1.2 °F -7.1 °F 39% 30.09 in 10.0 mi WNW 10.4 mph 20.7 mph N/A   Clear
8:53 PM 12.9 °F -2.2 °F -7.1 °F 41% 30.13 in 10.0 mi WNW 13.8 mph 23.0 mph N/A   Clear
9:53 PM 10.9 °F 0.2 °F -7.1 °F 44% 30.17 in 10.0 mi NNW 6.9 mph - N/A   Clear
10:53 PM 10.0 °F -4.5 °F -7.1 °F 46% 30.19 in 10.0 mi NW 11.5 mph - N/A   Clear
11:53 PM 9.0 °F -0.9 °F -8.0 °F 46% 30.21 in 10.0 mi NW 5.8 mph - N/A   Clear